Other Public Products
Issued by NWS Grand Forks, ND

Home | Current Version | Previous Version | Graphics & Text | Print | Product List | Glossary On
Versions: 1 2 3 4 5 6 7 8 9 10 11 12 13 14 15 16 17 18 19 20 21 22 23 24 25 26 27 28 29 30 31 32 33 34 35 36 37 38 39 40 41 42 43 44 45 46 47 48 49 50
059
FPUS83 KFGF 060410
OPUFGF
PRAIRIE TO PINES WEATHER ROUNDUP
NATIONAL WEATHER SERVICE EASTERN NORTH DAKOTA/GRAND FORKS ND
1000 PM CST FRI FEB 05 2016

 **SATELLITE DATA USED TO AUGMENT SKY COVER AT AUTOMATED STATIONS**
 *****  WEATHER ACROSS EASTERN NORTH DAKOTA  *****

CITY           SKY/WX    TMP DP  RH WIND       PRES   REMARKS
GRAND FORKS    CLOUDY    20  15  81 S8        30.07F WCI  10
GRAND FORKS AF CLOUDY    20  16  84 SW6       30.06F WCI  12
GRAND CITY NWS   N/A     19 N/A N/A SW6         N/A  WCI  11
BUXTON           N/A     22  20  95 S3          N/A
DEVILS LAKE    CLOUDY    23  18  81 SW8       30.03F WCI  14
FARGO          CLEAR     21  17  84 S7        30.11F WCI  12
WAHPETON ARPT  CLOUDY   N/A N/A N/A CALM      30.15S VSB 1/4
$$

 *****  WEATHER ACROSS CENTRAL AND WESTERN NORTH DAKOTA  *****

CITY           SKY/WX    TMP DP  RH WIND       PRES   REMARKS
JAMESTOWN      CLEAR     23  17  78 S7        30.06F WCI  15
BISMARCK       CLEAR     27  22  81 CALM      30.06F
MINOT          CLOUDY    31  21  66 SW7       29.97F WCI  24
MINOT AFB      CLOUDY    27  25  92 CALM      29.96F
GARRISON         N/A     25  21  85 SW3       30.01F
WILLISTON      CLOUDY    27  22  81 SW8       29.95F WCI  19
DICKINSON      CLOUDY    30  21  69 SW12      29.99F WCI  20
HETTINGER      CLEAR     24  18  77 W5        30.07F WCI  18
$$

 *****  OTHER OBSERVATIONS NORTHEAST NORTH DAKOTA  *****

CITY           SKY/WX    TMP DP  RH WIND       PRES   REMARKS
WALHALLA       FAIR      18  18 100 SE6       30.04F WCI   9
LANGDON        FAIR      18  16  93 SW13      30.00F WCI   4
CAVALIER       FAIR      16  14  93 S6        30.05F WCI   7
GRAFTON        FAIR      14  14 100 S6        30.08F WCI   5
CANDO          NOT AVBL
FORT TOTTEN      N/A     22  18  83 S3        29.95S
ROLLA          CLOUDY    27  23  86 W10       29.98F WCI  17
RUGBY          FAIR      25  21  86 S7        30.00F WCI  17
 ***** THE ABOVE OBSERVATIONS ARE NON NWS ARE NOT QUALITY
        CONTROLLED AND MAY MIS-REPORT RAIN FOR SNOW...
$$

 *****  OTHER OBSERVATIONS SOUTHEAST NORTH DAKOTA *****

CITY           SKY/WX    TMP DP  RH WIND       PRES   REMARKS
COOPERSTOWN    NOT AVBL
VALLEY CITY    FAIR      18  18 100 SW8       30.09F WCI   7
OAKES          FAIR      16  16 100 S8        30.11F WCI   5
GWINNER          N/A     14  14 100 SW8       30.12F WCI   3
SHEYENNE NWR     N/A     12  10  90 CALM      29.95S
BUFFALO          N/A     23  18  82 S9          N/A  WCI  13
WYNDMERE       NOT AVBL
 ***** THE ABOVE OBSERVATIONS ARE NON NWS ARE NOT QUALITY
       CONTROLLED AND MAY MIS-REPORT RAIN FOR SNOW...
$$

  *****  WEATHER ACROSS NORTHERN MINNESOTA  *****

CITY           SKY/WX    TMP DP  RH WIND       PRES   REMARKS
FLAG ISLAND    CLOUDY    18  14  86 CALM      30.04F
WARROAD        CLOUDY    19  16  86 SW6       30.05F WCI  11
ROSEAU         CLOUDY    19  14  79 SW6       30.06F WCI  11
HALLOCK        CLOUDY    12  10  92 SE8       30.06F WCI   1
THF RVR FALLS  CLOUDY    12   9  85 S5        30.08F WCI   4
HALSTAD        NOT AVBL
FOSSTON        CLOUDY     9   7  92 S6        30.09F FOG     WCI  -1
BAUDETTE       CLOUDY    21  14  74 W5        30.04F WCI  15
WASKISH        CLOUDY    18  16  93 SW7       30.07S WCI   8
CROOKSTON      CLOUDY    14  12  92 S7        30.10F WCI   4
$$
  *****  WEATHER ACROSS CENTRAL AND WEST MINNESOTA  *****

CITY           SKY/WX    TMP DP  RH WIND       PRES   REMARKS
BEMIDJI        CLOUDY    17  16  95 W6        30.07F FOG     WCI   8
PARK RAPIDS    CLOUDY    18  15  88 W6        30.09S WCI  10
WADENA         CLOUDY    21  18  86 W6        30.11F WCI  14
DETROIT LAKES  CLOUDY    23  21  93 SW7       30.12S FOG     WCI  15
MOORHEAD       CLEAR     16  14  93 SE7       30.13F FOG     WCI   6
FERGUS FALLS   FOG       19  16  86 CALM      30.18R VSB<1/4
ELBOW LAKE     FOG       16  14  95 S3        30.14S VSB<1/4
MORRIS MN      FOG       14  12  92 SW3       30.14F VSB<1/4
STAPLES        CLOUDY    23  19  86 W7        30.12S WCI  15
WHEATON        CLOUDY    21  19  93 SW5       30.17S WCI  15
$$
  *****  WEATHER ELSEWHERE ACROSS MINNESOTA  *****

CITY           SKY/WX    TMP DP  RH WIND       PRES   REMARKS
DULUTH         CLOUDY    23  13  65 SW13      30.07F WCI  11
INTRNTL FALLS  CLOUDY    21  15  78 SW5       30.03F WCI  15
ELY            CLOUDY    23  18  80 W3        30.03F
CLOQUET        CLOUDY    25  14  63 SW7       30.09F WCI  17
BRAINERD       CLOUDY    24  18  77 W8        30.12S WCI  15
HIBBING        CLOUDY    23  15  71 S3        30.05F
ALEXANDRIA     CLOUDY    24  21  88 NW7       30.13F WCI  16
SAINT CLOUD    CLOUDY    22  18  85 S6        30.15S WCI  14
MINNEAPOLIS    CLOUDY    26  21  81 SW7       30.19S WCI  18
$$

  *****  WEATHER ACROSS SOUTH DAKOTA  *****

CITY           SKY/WX    TMP DP  RH WIND       PRES   REMARKS
SIOUX FALLS    CLOUDY    26  24  92 CALM      30.20S FOG
BROOKINGS      FOG       22  21  96 CALM      30.17S VSB 1/4
WATERTOWN      FOG       18  16  92 S5        30.14S VSB 1/4 WCI  11
HURON          CLEAR     26  21  81 SW7       30.18F WCI  18
SISSETON         N/A     18  15  88 SW3       30.14F
ABERDEEN       CLEAR     21  16  81 SW6       30.15S WCI  13
MITCHELL       CLEAR     27  25  92 SW7       30.22R WCI  19
PIERRE         CLEAR     30  24  78 SW8       30.15F WCI  22
MOBRIDGE       CLEAR     29  22  75 SE5       30.09S WCI  24
RAPID CITY     CLEAR     22  16  78 CALM      30.15F
$$

  *****  SOME WEATHER IN NEARBY STATES *****

CITY           SKY/WX    TMP DP  RH WIND       PRES   REMARKS
GLASGOW MT     CLOUDY    37  25  61 W9        29.93F
GREAT FALLS MT CLOUDY    42  23  46 SW23G30   30.02F
CHEYENNE WY    CLOUDY    25   7  46 W25       30.23S WCI   9
SCOTTSBLUFF NE CLOUDY    16  11  80 NW5       30.26S WCI   9
OMAHA NE       MOCLDY    28  27  96 S5        30.25R FOG     WCI  23
DES MOINES IA  CLOUDY    30  24  78 S7        30.27S WCI  23
DAVENPORT IA   CLOUDY    28  22  78 S3        30.31F
CHICAGO IL     MOCLDY    27  21  78 SW5       30.31F WCI  22
EAU CLAIRE WI  CLOUDY    23  14  68 SW8       30.20F WCI  14
LA CROSSE WI   CLOUDY    24  16  71 S3        30.27R
$$

  *****  SOME NATIONAL WEATHER *****

CITY           SKY/WX    TMP DP  RH WIND       PRES   REMARKS
LA GUARDIA NY  CLEAR     34  18  52 NW16G23   30.32R WCI  24
RALEIGH NC     PTCLDY    32  22  66 CALM      30.40S
ATLANTA GA     PTCLDY    38  15  39 N7        30.35S
NEW ORLEANS LA PTCLDY    44  26  49 CALM      30.38F
OKLAHOMA CITY  CLOUDY    47  28  47 S7        30.26R
ALBUQUERQUE NM CLEAR     34  12  40 N16G23    30.44R WCI  24
SALT LAKE CITY PTCLDY    29  22  75 SE6       30.54R WCI  23
LOS ANGELES CA CLEAR     68  23  18 N9        30.27R
BOISE ID       MOCLDY    36  29  75 SE12      30.42F
SEATTLE WA     CLOUDY    49  43  80 S18G25    30.12R
$$

*** WEATHER ACROSS MANITOBA...SASKATCHEWAN AND ONTARIO ***
                ***ONTARIO***

CITY           SKY/WX    TMP DP  RH WIND       PRES   REMARKS
GERALDTON      FLURRIES   9   7  92 S3        29.98F
THUNDER BAY    FLURRIES  16  14  93 W5        30.04F WCI   9
SIOUX LOOKOUT  FLURRIES  12  10  92 W3        29.98F
TORONTO        MOCLDY    30  21  69 SW12      30.25F WCI  21
BIG TROUT LK   CLEAR    -15 -22  70 N7        30.05S WCI -31
PICKLE LAKE    NOT AVBL
DRYDEN         CLOUDY    16  12  86 SW7       29.99F WCI   6
KENORA         CLOUDY    18  14  86 W5        30.01F WCI  11
$$
                *** MANITOBA***

CITY           SKY/WX    TMP DP  RH WIND       PRES   REMARKS
BRANDON        CLOUDY    18  14  86 VRB2      29.97F
DAUPHIN        PTCLDY    19  16  86 S3        29.96F
ISLAND LAKE    CLEAR    -13 -18  77 E5        30.09S WCI -25
PILOT MOUND      N/A     18  16  93 S6          N/A  WCI   9
THE PAS        FLURRIES   9   5  85 SE8       29.95F WCI  -4
THOMPSON       CRYSTALS -22 -27  76 NE2       30.11S
WINNIPEG       CLOUDY    18  14  86 S8        30.05F WCI   7
LYNN LAKE      CLOUDY   -15 -20  76 SE9       29.96F WCI -33
CHURCHILL      CLEAR    -35 -42  67 W6        30.20F WCI -53
$$
                ***SASKATCHEWAN***

CITY           SKY/WX    TMP DP  RH WIND       PRES   REMARKS
ESTEVAN        NOT AVBL
KINDERSLEY     CLOUDY    28  23  80 S12       29.69F WCI  18
LLOYDMINSTER   CLOUDY    27  21  80 S5        29.59F WCI  21
PRINCE ALBERT  PTCLDY    14  12  92 E7        29.73F WCI   4
REGINA         PTCLDY    23  19  86 SE9       29.83F WCI  13
YORKTON        MOCLDY    21  18  86 SE10      29.85F WCI  10
N. BATTLEFORD  MOCLDY    25  23  93 E6        29.68F WC1F1C2F2C3F3C4F4C5F5C6F6C7F7C8F8C9F9CaFaCbFbCcFcCdFdCe!



USA.gov is the U.S. government's official web portal to all federal, state and local government web resources and services.